User: anonymous   Login
Location: Drummondville
(45.8830°N, 72.4830°W)
Time: 21:06:37
(UTC-04:00)
Language:

Tiangong 2 - Orbit

View from above orbital plane
View from above orbital plane
View from above satellite
View from above satellite

Ground track
Ground track

The orbit data is extracted from the following two-line orbital elements,

1 41765U 16057A   18111.55395894  .00004409  00000-0  55462-4 0  9995
2 41765  42.7854 320.5779 0004358 242.8370 210.0887 15.61011806 91133
Epoch (UTC): 21 April 2018 13:17:42
Eccentricity: 0.0004358
inclination: 42.7854°
perigee height: 382 km
apogee height: 387 km
right ascension of ascending node: 320.5779°
argument of perigee: 242.8370°
revolutions per day: 15.61011806
mean anomaly at epoch: 210.0887°
orbit number at epoch: 9113

The dashed part of the orbit path shows where the satellite is in the earth's shadow,  

DLR